Year,Month,Day,Hour,Minute,Value (Times are PST for temperature in C)
2015,06,21,00,00,12.30
2015,06,21,00,01,12.30
2015,06,21,00,02,12.30
2015,06,21,00,03,12.20
2015,06,21,00,04,12.20
2015,06,21,00,05,12.20
2015,06,21,00,06,12.20
2015,06,21,00,07,12.20
2015,06,21,00,08,12.20
2015,06,21,00,09,12.20
2015,06,21,00,10,12.20
2015,06,21,00,11,12.20
2015,06,21,00,12,12.20
2015,06,21,00,13,12.20
2015,06,21,00,14,12.20
2015,06,21,00,15,12.10
2015,06,21,00,16,12.10
2015,06,21,00,17,12.10
2015,06,21,00,18,12.10
2015,06,21,00,19,12.10
2015,06,21,00,20,12.10
2015,06,21,00,21,12.10
2015,06,21,00,22,12.00
2015,06,21,00,23,12.00
2015,06,21,00,24,12.00
2015,06,21,00,25,12.00
2015,06,21,00,26,12.00
2015,06,21,00,27,12.00
2015,06,21,00,28,12.00
2015,06,21,00,29,12.00
2015,06,21,00,30,11.90
2015,06,21,00,31,11.90
2015,06,21,00,32,11.90
2015,06,21,00,33,11.80
2015,06,21,00,34,11.80
2015,06,21,00,35,11.80
2015,06,21,00,36,11.80
2015,06,21,00,37,11.80
2015,06,21,00,38,11.80
2015,06,21,00,39,11.80
2015,06,21,00,40,11.80
2015,06,21,00,41,11.80
2015,06,21,00,42,11.80
2015,06,21,00,43,11.70
2015,06,21,00,44,11.70
2015,06,21,00,45,11.70
2015,06,21,00,46,11.70
2015,06,21,00,47,11.70
2015,06,21,00,48,11.70
2015,06,21,00,49,11.70
2015,06,21,00,50,11.70
2015,06,21,00,51,11.70
2015,06,21,00,52,11.70
2015,06,21,00,53,11.70
2015,06,21,00,54,11.60
2015,06,21,00,55,11.60
2015,06,21,00,56,11.60
2015,06,21,00,57,11.60
2015,06,21,00,58,11.60
2015,06,21,00,59,11.60
2015,06,21,01,00,11.60
2015,06,21,01,01,11.60
2015,06,21,01,02,11.60
2015,06,21,01,03,11.60
2015,06,21,01,04,11.50
2015,06,21,01,05,11.40
2015,06,21,01,06,11.40
2015,06,21,01,07,11.40
2015,06,21,01,08,11.40
2015,06,21,01,09,11.40
2015,06,21,01,10,11.40
2015,06,21,01,11,11.40
2015,06,21,01,12,11.40
2015,06,21,01,13,11.40
2015,06,21,01,14,11.40
2015,06,21,01,15,11.40
2015,06,21,01,16,11.40
2015,06,21,01,17,11.40
2015,06,21,01,18,11.40
2015,06,21,01,19,11.40
2015,06,21,01,20,11.40
2015,06,21,01,21,11.40
2015,06,21,01,22,11.30
2015,06,21,01,23,11.30
2015,06,21,01,24,11.30
2015,06,21,01,25,11.30
2015,06,21,01,26,11.20
2015,06,21,01,27,11.20
2015,06,21,01,28,11.20
2015,06,21,01,29,11.20
2015,06,21,01,30,11.20
2015,06,21,01,31,11.20
2015,06,21,01,32,11.20
2015,06,21,01,33,11.20
2015,06,21,01,34,11.10
2015,06,21,01,35,11.10
2015,06,21,01,36,11.10
2015,06,21,01,37,11.10
2015,06,21,01,38,11.10
2015,06,21,01,39,11.10
2015,06,21,01,40,11.10
2015,06,21,01,41,11.10
2015,06,21,01,42,11.10
2015,06,21,01,43,11.10
2015,06,21,01,44,11.10
2015,06,21,01,45,11.10
2015,06,21,01,46,11.10
2015,06,21,01,47,11.10
2015,06,21,01,48,11.10
2015,06,21,01,49,11.10
2015,06,21,01,50,11.10
2015,06,21,01,51,11.10
2015,06,21,01,52,11.10
2015,06,21,01,53,11.00
2015,06,21,01,54,10.90
2015,06,21,01,55,10.90
2015,06,21,01,56,10.90
2015,06,21,01,57,10.90
2015,06,21,01,58,10.90
2015,06,21,01,59,10.90
2015,06,21,02,00,10.90
2015,06,21,02,01,10.90
2015,06,21,02,02,10.90
2015,06,21,02,03,10.90
2015,06,21,02,04,10.90
2015,06,21,02,05,10.80
2015,06,21,02,06,10.80
2015,06,21,02,07,10.80
2015,06,21,02,08,10.70
2015,06,21,02,09,10.70
2015,06,21,02,10,10.70
2015,06,21,02,11,10.70
2015,06,21,02,12,10.70
2015,06,21,02,13,10.60
2015,06,21,02,14,10.60
2015,06,21,02,15,10.60
2015,06,21,02,16,10.60
2015,06,21,02,17,10.60
2015,06,21,02,18,10.60
2015,06,21,02,19,10.60
2015,06,21,02,20,10.60
2015,06,21,02,21,10.60
2015,06,21,02,22,10.60
2015,06,21,02,23,10.60
2015,06,21,02,24,10.60
2015,06,21,02,25,10.60
2015,06,21,02,26,10.60
2015,06,21,02,27,10.60
2015,06,21,02,28,10.60
2015,06,21,02,29,10.60
2015,06,21,02,30,10.60
2015,06,21,02,31,10.60
2015,06,21,02,32,10.60
2015,06,21,02,33,10.60
2015,06,21,02,34,10.60
2015,06,21,02,35,10.60
2015,06,21,02,36,10.60
2015,06,21,02,37,10.60
2015,06,21,02,38,10.60
2015,06,21,02,39,10.60
2015,06,21,02,40,10.60
2015,06,21,02,41,10.60
2015,06,21,02,42,10.60
2015,06,21,02,43,10.60
2015,06,21,02,44,10.50
2015,06,21,02,45,10.40
2015,06,21,02,46,10.40
2015,06,21,02,47,10.40
2015,06,21,02,48,10.40
2015,06,21,02,49,10.40
2015,06,21,02,50,10.40
2015,06,21,02,51,10.40
2015,06,21,02,52,10.40
2015,06,21,02,53,10.40
2015,06,21,02,54,10.40
2015,06,21,02,55,10.40
2015,06,21,02,56,10.40
2015,06,21,02,57,10.40
2015,06,21,02,58,10.40
2015,06,21,02,59,10.40
2015,06,21,03,00,10.40
2015,06,21,03,01,10.40
2015,06,21,03,02,10.40
2015,06,21,03,03,10.40
2015,06,21,03,04,10.40
2015,06,21,03,05,10.40
2015,06,21,03,06,10.40
2015,06,21,03,07,10.40
2015,06,21,03,08,10.40
2015,06,21,03,09,10.40
2015,06,21,03,10,10.40
2015,06,21,03,11,10.40
2015,06,21,03,12,10.40
2015,06,21,03,13,10.40
2015,06,21,03,14,10.40
2015,06,21,03,15,10.40
2015,06,21,03,16,10.40
2015,06,21,03,17,10.40
2015,06,21,03,18,10.40
2015,06,21,03,19,10.40
2015,06,21,03,20,10.40
2015,06,21,03,21,10.40
2015,06,21,03,22,10.40
2015,06,21,03,23,10.40
2015,06,21,03,24,10.40
2015,06,21,03,25,10.40
2015,06,21,03,26,10.40
2015,06,21,03,27,10.40
2015,06,21,03,28,10.40
2015,06,21,03,29,10.30
2015,06,21,03,30,10.30
2015,06,21,03,31,10.30
2015,06,21,03,32,10.30
2015,06,21,03,33,10.30
2015,06,21,03,34,10.20
2015,06,21,03,35,10.20
2015,06,21,03,36,10.20
2015,06,21,03,37,10.20
2015,06,21,03,38,10.20
2015,06,21,03,39,10.20
2015,06,21,03,40,10.10
2015,06,21,03,41,10.10
2015,06,21,03,42,10.10
2015,06,21,03,43,10.10
2015,06,21,03,44,10.10
2015,06,21,03,45,10.10
2015,06,21,03,46,10.10
2015,06,21,03,47,10.10
2015,06,21,03,48,10.10
2015,06,21,03,49,10.10
2015,06,21,03,50,10.10
2015,06,21,03,51,10.10
2015,06,21,03,52,10.10
2015,06,21,03,53,10.00
2015,06,21,03,54,9.90
2015,06,21,03,55,9.90
2015,06,21,03,56,9.90
2015,06,21,03,57,9.90
2015,06,21,03,58,9.90
2015,06,21,03,59,9.90
2015,06,21,04,00,9.90
2015,06,21,04,01,9.90
2015,06,21,04,02,9.90
2015,06,21,04,03,9.90
2015,06,21,04,04,10.00
2015,06,21,04,05,10.10
2015,06,21,04,06,10.10
2015,06,21,04,07,10.10
2015,06,21,04,08,10.10
2015,06,21,04,09,10.10
2015,06,21,04,10,10.10
2015,06,21,04,11,10.10
2015,06,21,04,12,10.00
2015,06,21,04,13,9.90
2015,06,21,04,14,9.90
2015,06,21,04,15,9.90
2015,06,21,04,16,9.90
2015,06,21,04,17,9.90
2015,06,21,04,18,9.90
2015,06,21,04,19,9.80
2015,06,21,04,20,9.80
2015,06,21,04,21,9.80
2015,06,21,04,22,9.80
2015,06,21,04,23,9.70
2015,06,21,04,24,9.70
2015,06,21,04,25,9.70
2015,06,21,04,26,9.70
2015,06,21,04,27,9.70
2015,06,21,04,28,9.70
2015,06,21,04,29,9.70
2015,06,21,04,30,9.70
2015,06,21,04,31,9.70
2015,06,21,04,32,9.70
2015,06,21,04,33,9.70
2015,06,21,04,34,9.70
2015,06,21,04,35,9.70
2015,06,21,04,36,9.70
2015,06,21,04,37,9.70
2015,06,21,04,38,9.70
2015,06,21,04,39,9.70
2015,06,21,04,40,9.70
2015,06,21,04,41,9.70
2015,06,21,04,42,9.70
2015,06,21,04,43,9.70
2015,06,21,04,44,9.60
2015,06,21,04,45,9.60
2015,06,21,04,46,9.60
2015,06,21,04,47,9.60
2015,06,21,04,48,9.60
2015,06,21,04,49,9.60
2015,06,21,04,50,9.60
2015,06,21,04,51,9.60
2015,06,21,04,52,9.70
2015,06,21,04,53,9.70
2015,06,21,04,54,9.70
2015,06,21,04,55,9.70
2015,06,21,04,56,9.70
2015,06,21,04,57,9.70
2015,06,21,04,58,9.60
2015,06,21,04,59,9.60
2015,06,21,05,00,9.60
2015,06,21,05,01,9.60
2015,06,21,05,02,9.60
2015,06,21,05,03,9.60
2015,06,21,05,04,9.60
2015,06,21,05,05,9.60
2015,06,21,05,06,9.60
2015,06,21,05,07,9.60
2015,06,21,05,08,9.60
2015,06,21,05,09,9.60
2015,06,21,05,10,9.60
2015,06,21,05,11,9.60
2015,06,21,05,12,9.60
2015,06,21,05,13,9.70
2015,06,21,05,14,9.70
2015,06,21,05,15,9.70
2015,06,21,05,16,9.70
2015,06,21,05,17,9.70
2015,06,21,05,18,9.70
2015,06,21,05,19,9.70
2015,06,21,05,20,9.70
2015,06,21,05,21,9.70
2015,06,21,05,22,9.80
2015,06,21,05,23,9.80
2015,06,21,05,24,9.80
2015,06,21,05,25,9.90
2015,06,21,05,26,9.90
2015,06,21,05,27,9.90
2015,06,21,05,28,9.90
2015,06,21,05,29,9.90
2015,06,21,05,30,9.90
2015,06,21,05,31,9.90
2015,06,21,05,32,9.90
2015,06,21,05,33,9.90
2015,06,21,05,34,9.90
2015,06,21,05,35,10.00
2015,06,21,05,36,10.10
2015,06,21,05,37,10.10
2015,06,21,05,38,10.10
2015,06,21,05,39,10.20
2015,06,21,05,40,10.20
2015,06,21,05,41,10.20
2015,06,21,05,42,10.20
2015,06,21,05,43,10.20
2015,06,21,05,44,10.20
2015,06,21,05,45,10.20
2015,06,21,05,46,10.20
2015,06,21,05,47,10.30
2015,06,21,05,48,10.30
2015,06,21,05,49,10.40
2015,06,21,05,50,10.40
2015,06,21,05,51,10.40
2015,06,21,05,52,10.40
2015,06,21,05,53,10.40
2015,06,21,05,54,10.40
2015,06,21,05,55,10.60
2015,06,21,05,56,10.60
2015,06,21,05,57,10.60
2015,06,21,05,58,10.60
2015,06,21,05,59,10.70
2015,06,21,06,00,10.70
2015,06,21,06,01,10.80
2015,06,21,06,02,10.90
2015,06,21,06,03,10.90
2015,06,21,06,04,10.90
2015,06,21,06,05,11.00
2015,06,21,06,06,11.10
2015,06,21,06,07,11.10
2015,06,21,06,08,11.20
2015,06,21,06,09,11.20
2015,06,21,06,10,11.30
2015,06,21,06,11,11.40
2015,06,21,06,12,11.40
2015,06,21,06,13,11.60
2015,06,21,06,14,11.60
2015,06,21,06,15,11.70
2015,06,21,06,16,11.70
2015,06,21,06,17,11.80
2015,06,21,06,18,11.80
2015,06,21,06,19,11.90
2015,06,21,06,20,12.00
2015,06,21,06,21,12.00
2015,06,21,06,22,12.10
2015,06,21,06,23,12.20
2015,06,21,06,24,12.30
2015,06,21,06,25,12.30
2015,06,21,06,26,12.40
2015,06,21,06,27,12.50
2015,06,21,06,28,12.60
2015,06,21,06,29,12.70
2015,06,21,06,30,12.80
2015,06,21,06,31,12.90
2015,06,21,06,32,13.00
2015,06,21,06,33,13.00
2015,06,21,06,34,13.10
2015,06,21,06,35,13.20
2015,06,21,06,36,13.30
2015,06,21,06,37,13.30
2015,06,21,06,38,13.50
2015,06,21,06,39,13.50
2015,06,21,06,40,13.60
2015,06,21,06,41,13.70
2015,06,21,06,42,13.70
2015,06,21,06,43,13.70
2015,06,21,06,44,13.80
2015,06,21,06,45,13.90
2015,06,21,06,46,14.00
2015,06,21,06,47,14.10
2015,06,21,06,48,14.20
2015,06,21,06,49,14.20
2015,06,21,06,50,14.30
2015,06,21,06,51,14.40
2015,06,21,06,52,14.50
2015,06,21,06,53,14.60
2015,06,21,06,54,14.70
2015,06,21,06,55,14.80
2015,06,21,06,56,14.80
2015,06,21,06,57,14.90
2015,06,21,06,58,15.00
2015,06,21,06,59,15.10
2015,06,21,07,00,15.20
2015,06,21,07,01,15.30
2015,06,21,07,02,15.30
2015,06,21,07,03,15.30
2015,06,21,07,04,15.30
2015,06,21,07,05,15.50
2015,06,21,07,06,15.50
2015,06,21,07,07,15.60
2015,06,21,07,08,15.80
2015,06,21,07,09,15.80
2015,06,21,07,10,15.80
2015,06,21,07,11,15.90
2015,06,21,07,12,16.00
2015,06,21,07,13,16.10
2015,06,21,07,14,16.10
2015,06,21,07,15,16.10
2015,06,21,07,16,16.10
2015,06,21,07,17,16.10
2015,06,21,07,18,16.20
2015,06,21,07,19,16.20
2015,06,21,07,20,16.20
2015,06,21,07,21,16.20
2015,06,21,07,22,16.30
2015,06,21,07,23,16.30
2015,06,21,07,24,16.40
2015,06,21,07,25,16.40
2015,06,21,07,26,16.40
2015,06,21,07,27,16.40
2015,06,21,07,28,16.40
2015,06,21,07,29,16.40
2015,06,21,07,30,16.40
2015,06,21,07,31,16.40
2015,06,21,07,32,16.40
2015,06,21,07,33,16.40
2015,06,21,07,34,16.40
2015,06,21,07,35,16.40
2015,06,21,07,36,16.40
2015,06,21,07,37,16.40
2015,06,21,07,38,16.50
2015,06,21,07,39,16.60
2015,06,21,07,40,16.60
2015,06,21,07,41,16.70
2015,06,21,07,42,16.70
2015,06,21,07,43,16.70
2015,06,21,07,44,16.70
2015,06,21,07,45,16.80
2015,06,21,07,46,16.80
2015,06,21,07,47,16.90
2015,06,21,07,48,16.90
2015,06,21,07,49,17.00
2015,06,21,07,50,17.00
2015,06,21,07,51,17.00
2015,06,21,07,52,17.10
2015,06,21,07,53,17.10
2015,06,21,07,54,17.10
2015,06,21,07,55,17.10
2015,06,21,07,56,17.10
2015,06,21,07,57,17.20
2015,06,21,07,58,17.20
2015,06,21,07,59,17.20
2015,06,21,08,00,17.30
2015,06,21,08,01,17.30
2015,06,21,08,02,17.30
2015,06,21,08,03,17.30
2015,06,21,08,04,17.30
2015,06,21,08,05,17.30
2015,06,21,08,06,17.30
2015,06,21,08,07,17.30
2015,06,21,08,08,17.30
2015,06,21,08,09,17.30
2015,06,21,08,10,17.30
2015,06,21,08,11,17.30
2015,06,21,08,12,17.30
2015,06,21,08,13,17.30
2015,06,21,08,14,17.30
2015,06,21,08,15,17.40
2015,06,21,08,16,17.50
2015,06,21,08,17,17.60
2015,06,21,08,18,17.70
2015,06,21,08,19,17.80
2015,06,21,08,20,17.80
2015,06,21,08,21,17.90
2015,06,21,08,22,17.90
2015,06,21,08,23,17.90
2015,06,21,08,24,17.90
2015,06,21,08,25,17.90
2015,06,21,08,26,18.10
2015,06,21,08,27,18.10
2015,06,21,08,28,18.20
2015,06,21,08,29,18.20
2015,06,21,08,30,18.30
2015,06,21,08,31,18.30
2015,06,21,08,32,18.40
2015,06,21,08,33,18.40
2015,06,21,08,34,18.40
2015,06,21,08,35,18.40
2015,06,21,08,36,18.50
2015,06,21,08,37,18.50
2015,06,21,08,38,18.60
2015,06,21,08,39,18.60
2015,06,21,08,40,18.60
2015,06,21,08,41,18.70
2015,06,21,08,42,18.70
2015,06,21,08,43,18.70
2015,06,21,08,44,18.70
2015,06,21,08,45,18.60
2015,06,21,08,46,18.60
2015,06,21,08,47,18.60
2015,06,21,08,48,18.60
2015,06,21,08,49,18.70
2015,06,21,08,50,18.70
2015,06,21,08,51,18.60
2015,06,21,08,52,18.60
2015,06,21,08,53,18.60
2015,06,21,08,54,18.60
2015,06,21,08,55,18.50
2015,06,21,08,56,18.50
2015,06,21,08,57,18.40
2015,06,21,08,58,18.30
2015,06,21,08,59,18.30
2015,06,21,09,00,18.20
2015,06,21,09,01,18.20
2015,06,21,09,02,18.20
2015,06,21,09,03,18.20
2015,06,21,09,04,18.30
2015,06,21,09,05,18.40
2015,06,21,09,06,18.50
2015,06,21,09,07,18.50
2015,06,21,09,08,18.60
2015,06,21,09,09,18.70
2015,06,21,09,10,18.70
2015,06,21,09,11,18.60
2015,06,21,09,12,18.60
2015,06,21,09,13,18.70
2015,06,21,09,14,18.80
2015,06,21,09,15,18.80
2015,06,21,09,16,18.80
2015,06,21,09,17,18.80
2015,06,21,09,18,18.80
2015,06,21,09,19,18.80
2015,06,21,09,20,18.70
2015,06,21,09,21,18.70
2015,06,21,09,22,18.70
2015,06,21,09,23,18.80
2015,06,21,09,24,18.90
2015,06,21,09,25,18.90
2015,06,21,09,26,19.00
2015,06,21,09,27,19.10
2015,06,21,09,28,19.10
2015,06,21,09,29,19.10
2015,06,21,09,30,19.10
2015,06,21,09,31,19.10
2015,06,21,09,32,19.10
2015,06,21,09,33,19.10
2015,06,21,09,34,19.20
2015,06,21,09,35,19.10
2015,06,21,09,36,19.10
2015,06,21,09,37,19.10
2015,06,21,09,38,18.90
2015,06,21,09,39,18.90
2015,06,21,09,40,18.90
2015,06,21,09,41,18.90
2015,06,21,09,42,18.90
2015,06,21,09,43,18.90
2015,06,21,09,44,18.90
2015,06,21,09,45,18.80
2015,06,21,09,46,18.80
2015,06,21,09,47,18.70
2015,06,21,09,48,18.70
2015,06,21,09,49,18.70
2015,06,21,09,50,18.70
2015,06,21,09,51,18.60
2015,06,21,09,52,18.50
2015,06,21,09,53,18.50
2015,06,21,09,54,18.50
2015,06,21,09,55,18.50
2015,06,21,09,56,18.50
2015,06,21,09,57,18.40
2015,06,21,09,58,18.40
2015,06,21,09,59,18.50
2015,06,21,10,00,18.60
2015,06,21,10,01,18.60
2015,06,21,10,02,18.70
2015,06,21,10,03,18.80
2015,06,21,10,04,18.90
2015,06,21,10,05,18.90
2015,06,21,10,06,19.10
2015,06,21,10,07,19.20
2015,06,21,10,08,19.30
2015,06,21,10,09,19.30
2015,06,21,10,10,19.40
2015,06,21,10,11,19.50
2015,06,21,10,12,19.60
2015,06,21,10,13,19.70
2015,06,21,10,14,19.70
2015,06,21,10,15,19.80
2015,06,21,10,16,19.90
2015,06,21,10,17,19.90
2015,06,21,10,18,20.00
2015,06,21,10,19,20.10
2015,06,21,10,20,20.10
2015,06,21,10,21,20.10
2015,06,21,10,22,20.20
2015,06,21,10,23,20.20
2015,06,21,10,24,20.20
2015,06,21,10,25,20.10
2015,06,21,10,26,20.00
2015,06,21,10,27,19.90
2015,06,21,10,28,19.90
2015,06,21,10,29,19.90
2015,06,21,10,30,19.90
2015,06,21,10,31,19.90
2015,06,21,10,32,20.00
2015,06,21,10,33,20.10
2015,06,21,10,34,20.20
2015,06,21,10,35,20.30
2015,06,21,10,36,20.40
2015,06,21,10,37,20.40
2015,06,21,10,38,20.40
2015,06,21,10,39,20.30
2015,06,21,10,40,20.20
2015,06,21,10,41,20.10
2015,06,21,10,42,20.10
2015,06,21,10,43,20.10
2015,06,21,10,44,20.10
2015,06,21,10,45,20.20
2015,06,21,10,46,20.30
2015,06,21,10,47,20.40
2015,06,21,10,48,20.50
2015,06,21,10,49,20.50
2015,06,21,10,50,20.60
2015,06,21,10,51,20.70
2015,06,21,10,52,20.70
2015,06,21,10,53,20.70
2015,06,21,10,54,20.70
2015,06,21,10,55,20.80
2015,06,21,10,56,20.80
2015,06,21,10,57,20.90
2015,06,21,10,58,20.90
2015,06,21,10,59,20.90
2015,06,21,11,00,21.00
2015,06,21,11,01,21.00
2015,06,21,11,02,21.10
2015,06,21,11,03,21.10
2015,06,21,11,04,21.00
2015,06,21,11,05,21.00
2015,06,21,11,06,21.00
2015,06,21,11,07,21.00
2015,06,21,11,08,20.90
2015,06,21,11,09,20.80
2015,06,21,11,10,20.80
2015,06,21,11,11,20.80
2015,06,21,11,12,21.00
2015,06,21,11,13,21.10
2015,06,21,11,14,21.30
2015,06,21,11,15,21.50
2015,06,21,11,16,21.60
2015,06,21,11,17,21.60
2015,06,21,11,18,21.70
2015,06,21,11,19,21.70
2015,06,21,11,20,21.70
2015,06,21,11,21,21.70
2015,06,21,11,22,21.70
2015,06,21,11,23,21.60
2015,06,21,11,24,21.60
2015,06,21,11,25,21.60
2015,06,21,11,26,21.50
2015,06,21,11,27,21.30
2015,06,21,11,28,21.30
2015,06,21,11,29,21.30
2015,06,21,11,30,21.30
2015,06,21,11,31,21.30
2015,06,21,11,32,21.30
2015,06,21,11,33,21.30
2015,06,21,11,34,21.20
2015,06,21,11,35,21.20
2015,06,21,11,36,21.30
2015,06,21,11,37,21.40
2015,06,21,11,38,21.40
2015,06,21,11,39,21.40
2015,06,21,11,40,21.40
2015,06,21,11,41,21.50
2015,06,21,11,42,21.40
2015,06,21,11,43,21.40
2015,06,21,11,44,21.30
2015,06,21,11,45,21.20
2015,06,21,11,46,21.00
2015,06,21,11,47,21.00
2015,06,21,11,48,21.10
2015,06,21,11,49,21.20
2015,06,21,11,50,21.30
2015,06,21,11,51,21.40
2015,06,21,11,52,21.50
2015,06,21,11,53,21.60
2015,06,21,11,54,21.70
2015,06,21,11,55,21.80
2015,06,21,11,56,21.80
2015,06,21,11,57,21.90
2015,06,21,11,58,22.10
2015,06,21,11,59,22.10
2015,06,21,12,00,22.10
2015,06,21,12,01,22.10
2015,06,21,12,02,22.10
2015,06,21,12,03,22.10
2015,06,21,12,04,22.00
2015,06,21,12,05,22.10
2015,06,21,12,06,22.10
2015,06,21,12,07,22.10
2015,06,21,12,08,22.00
2015,06,21,12,09,22.00
2015,06,21,12,10,21.90
2015,06,21,12,11,21.80
2015,06,21,12,12,21.80
2015,06,21,12,13,21.70
2015,06,21,12,14,21.80
2015,06,21,12,15,21.70
2015,06,21,12,16,21.70
2015,06,21,12,17,21.80
2015,06,21,12,18,22.00
2015,06,21,12,19,22.10
2015,06,21,12,20,22.20
2015,06,21,12,21,22.30
2015,06,21,12,22,22.40
2015,06,21,12,23,22.60
2015,06,21,12,24,22.60
2015,06,21,12,25,22.60
2015,06,21,12,26,22.70
2015,06,21,12,27,22.80
2015,06,21,12,28,22.90
2015,06,21,12,29,23.10
2015,06,21,12,30,23.20
2015,06,21,12,31,23.20
2015,06,21,12,32,23.10
2015,06,21,12,33,23.10
2015,06,21,12,34,23.20
2015,06,21,12,35,23.20
2015,06,21,12,36,23.30
2015,06,21,12,37,23.30
2015,06,21,12,38,23.40
2015,06,21,12,39,23.50
2015,06,21,12,40,23.50
2015,06,21,12,41,23.40
2015,06,21,12,42,23.40
2015,06,21,12,43,23.40
2015,06,21,12,44,23.40
2015,06,21,12,45,23.50
2015,06,21,12,46,23.60
2015,06,21,12,47,23.70
2015,06,21,12,48,23.70
2015,06,21,12,49,23.70
2015,06,21,12,50,23.70
2015,06,21,12,51,23.70
2015,06,21,12,52,23.80
2015,06,21,12,53,23.80
2015,06,21,12,54,23.70
2015,06,21,12,55,23.70
2015,06,21,12,56,23.70
2015,06,21,12,57,23.70
2015,06,21,12,58,23.60
2015,06,21,12,59,23.50
2015,06,21,13,00,23.30
2015,06,21,13,01,23.30
2015,06,21,13,02,23.20
2015,06,21,13,03,23.20
2015,06,21,13,04,23.20
2015,06,21,13,05,23.20
2015,06,21,13,06,23.10
2015,06,21,13,07,23.10
2015,06,21,13,08,23.10
2015,06,21,13,09,23.20
2015,06,21,13,10,23.30
2015,06,21,13,11,23.50
2015,06,21,13,12,23.60
2015,06,21,13,13,23.60
2015,06,21,13,14,23.60
2015,06,21,13,15,23.70
2015,06,21,13,16,23.70
2015,06,21,13,17,23.70
2015,06,21,13,18,23.70
2015,06,21,13,19,23.70
2015,06,21,13,20,23.70
2015,06,21,13,21,23.70
2015,06,21,13,22,23.70
2015,06,21,13,23,23.70
2015,06,21,13,24,23.70
2015,06,21,13,25,23.70
2015,06,21,13,26,23.70
2015,06,21,13,27,23.70
2015,06,21,13,28,23.70
2015,06,21,13,29,23.70
2015,06,21,13,30,23.70
2015,06,21,13,31,23.50
2015,06,21,13,32,23.30
2015,06,21,13,33,23.30
2015,06,21,13,34,23.30
2015,06,21,13,35,23.50
2015,06,21,13,36,23.70
2015,06,21,13,37,23.90
2015,06,21,13,38,24.10
2015,06,21,13,39,24.10
2015,06,21,13,40,23.90
2015,06,21,13,41,23.90
2015,06,21,13,42,23.90
2015,06,21,13,43,23.90
2015,06,21,13,44,23.90
2015,06,21,13,45,23.80
2015,06,21,13,46,23.70
2015,06,21,13,47,23.70
2015,06,21,13,48,23.60
2015,06,21,13,49,23.40
2015,06,21,13,50,23.20
2015,06,21,13,51,22.90
2015,06,21,13,52,22.50
2015,06,21,13,53,22.40
2015,06,21,13,54,22.40
2015,06,21,13,55,22.30
2015,06,21,13,56,22.20
2015,06,21,13,57,22.20
2015,06,21,13,58,22.30
2015,06,21,13,59,22.30
2015,06,21,14,00,22.50
2015,06,21,14,01,22.80
2015,06,21,14,02,22.90
2015,06,21,14,03,23.00
2015,06,21,14,04,23.20
2015,06,21,14,05,23.30
2015,06,21,14,06,23.60
2015,06,21,14,07,23.80
2015,06,21,14,08,24.00
2015,06,21,14,09,24.00
2015,06,21,14,10,23.90
2015,06,21,14,11,23.80
2015,06,21,14,12,23.90
2015,06,21,14,13,24.00
2015,06,21,14,14,24.10
2015,06,21,14,15,24.10
2015,06,21,14,16,24.10
2015,06,21,14,17,24.10
2015,06,21,14,18,24.20
2015,06,21,14,19,24.20
2015,06,21,14,20,24.30
2015,06,21,14,21,24.30
2015,06,21,14,22,24.40
2015,06,21,14,23,24.50
2015,06,21,14,24,24.60
2015,06,21,14,25,24.60
2015,06,21,14,26,24.60
2015,06,21,14,27,24.50
2015,06,21,14,28,24.50
2015,06,21,14,29,24.50
2015,06,21,14,30,24.40
2015,06,21,14,31,24.20
2015,06,21,14,32,24.10
2015,06,21,14,33,24.00
2015,06,21,14,34,23.80
2015,06,21,14,35,23.90
2015,06,21,14,36,23.90
2015,06,21,14,37,24.00
2015,06,21,14,38,24.10
2015,06,21,14,39,24.10
2015,06,21,14,40,24.20
2015,06,21,14,41,24.40
2015,06,21,14,42,24.50
2015,06,21,14,43,24.50
2015,06,21,14,44,24.60
2015,06,21,14,45,24.60
2015,06,21,14,46,24.60
2015,06,21,14,47,24.50
2015,06,21,14,48,24.60
2015,06,21,14,49,24.60
2015,06,21,14,50,24.60
2015,06,21,14,51,24.60
2015,06,21,14,52,24.60
2015,06,21,14,53,24.50
2015,06,21,14,54,24.60
2015,06,21,14,55,24.60
2015,06,21,14,56,24.70
2015,06,21,14,57,24.70
2015,06,21,14,58,24.60
2015,06,21,14,59,24.60
2015,06,21,15,00,24.60
2015,06,21,15,01,24.40
2015,06,21,15,02,24.30
2015,06,21,15,03,24.40
2015,06,21,15,04,24.40
2015,06,21,15,05,24.50
2015,06,21,15,06,24.60
2015,06,21,15,07,24.50
2015,06,21,15,08,24.50
2015,06,21,15,09,24.50
2015,06,21,15,10,24.50
2015,06,21,15,11,24.50
2015,06,21,15,12,24.60
2015,06,21,15,13,24.70
2015,06,21,15,14,24.70
2015,06,21,15,15,24.80
2015,06,21,15,16,24.80
2015,06,21,15,17,24.80
2015,06,21,15,18,24.80
2015,06,21,15,19,24.80
2015,06,21,15,20,24.90
2015,06,21,15,21,25.00
2015,06,21,15,22,25.10
2015,06,21,15,23,25.20
2015,06,21,15,24,25.10
2015,06,21,15,25,25.20
2015,06,21,15,26,25.20
2015,06,21,15,27,25.10
2015,06,21,15,28,25.00
2015,06,21,15,29,25.00
2015,06,21,15,30,25.00
2015,06,21,15,31,25.10
2015,06,21,15,32,25.20
2015,06,21,15,33,25.30
2015,06,21,15,34,25.40
2015,06,21,15,35,25.40
2015,06,21,15,36,25.40
2015,06,21,15,37,25.50
2015,06,21,15,38,25.60
2015,06,21,15,39,25.60
2015,06,21,15,40,25.50
2015,06,21,15,41,25.40
2015,06,21,15,42,25.40
2015,06,21,15,43,25.40
2015,06,21,15,44,25.50
2015,06,21,15,45,25.60
2015,06,21,15,46,25.70
2015,06,21,15,47,25.70
2015,06,21,15,48,25.70
2015,06,21,15,49,25.80
2015,06,21,15,50,25.90
2015,06,21,15,51,25.90
2015,06,21,15,52,25.90
2015,06,21,15,53,25.70
2015,06,21,15,54,25.60
2015,06,21,15,55,25.60
2015,06,21,15,56,25.60
2015,06,21,15,57,25.70
2015,06,21,15,58,25.70
2015,06,21,15,59,25.60
2015,06,21,16,00,25.40
2015,06,21,16,01,25.00
2015,06,21,16,02,24.60
2015,06,21,16,03,24.10
2015,06,21,16,04,23.70
2015,06,21,16,05,23.40
2015,06,21,16,06,23.20
2015,06,21,16,07,23.00
2015,06,21,16,08,22.90
2015,06,21,16,09,22.90
2015,06,21,16,10,22.80
2015,06,21,16,11,22.80
2015,06,21,16,12,22.80
2015,06,21,16,13,22.80
2015,06,21,16,14,22.80
2015,06,21,16,15,22.60
2015,06,21,16,16,22.50
2015,06,21,16,17,22.40
2015,06,21,16,18,22.30
2015,06,21,16,19,22.40
2015,06,21,16,20,22.30
2015,06,21,16,21,22.20
2015,06,21,16,22,22.20
2015,06,21,16,23,22.30
2015,06,21,16,24,22.50
2015,06,21,16,25,22.60
2015,06,21,16,26,22.60
2015,06,21,16,27,22.70
2015,06,21,16,28,22.70
2015,06,21,16,29,22.70
2015,06,21,16,30,22.60
2015,06,21,16,31,22.50
2015,06,21,16,32,22.50
2015,06,21,16,33,22.60
2015,06,21,16,34,22.60
2015,06,21,16,35,22.70
2015,06,21,16,36,22.70
2015,06,21,16,37,22.70
2015,06,21,16,38,22.70
2015,06,21,16,39,22.70
2015,06,21,16,40,22.80
2015,06,21,16,41,22.80
2015,06,21,16,42,22.70
2015,06,21,16,43,22.60
2015,06,21,16,44,22.50
2015,06,21,16,45,22.50
2015,06,21,16,46,22.50
2015,06,21,16,47,22.40
2015,06,21,16,48,22.30
2015,06,21,16,49,22.30
2015,06,21,16,50,22.30
2015,06,21,16,51,22.30
2015,06,21,16,52,22.20
2015,06,21,16,53,22.20
2015,06,21,16,54,22.30
2015,06,21,16,55,22.50
2015,06,21,16,56,22.60
2015,06,21,16,57,22.50
2015,06,21,16,58,22.40
2015,06,21,16,59,22.40
2015,06,21,17,00,22.30
2015,06,21,17,01,22.30
2015,06,21,17,02,22.30
2015,06,21,17,03,22.20
2015,06,21,17,04,22.10
2015,06,21,17,05,22.00
2015,06,21,17,06,22.00
2015,06,21,17,07,21.80
2015,06,21,17,08,21.60
2015,06,21,17,09,21.70
2015,06,21,17,10,21.70
2015,06,21,17,11,21.70
2015,06,21,17,12,21.70
2015,06,21,17,13,21.70
2015,06,21,17,14,21.60
2015,06,21,17,15,21.60
2015,06,21,17,16,21.60
2015,06,21,17,17,21.60
2015,06,21,17,18,21.60
2015,06,21,17,19,21.60
2015,06,21,17,20,21.40
2015,06,21,17,21,21.40
2015,06,21,17,22,21.30
2015,06,21,17,23,21.30